TimeCDT,TemperatureF,Dew PointF,Humidity,Sea Level PressureIn,VisibilityMPH,Wind Direction,Wind SpeedMPH,Gust SpeedMPH,PrecipitationIn,Events,Conditions,WindDirDegrees,DateUTC
12:15 AM,53.8,45.0,72,30.11,10.0,SE,3.5,-,N/A,,Clear,140,2013-10-08 05:15:00
12:35 AM,53.1,45.1,74,30.11,10.0,SE,3.5,-,N/A,,Clear,140,2013-10-08 05:35:00
12:55 AM,52.5,45.1,76,30.11,10.0,SE,3.5,-,N/A,,Clear,140,2013-10-08 05:55:00
1:15 AM,52.2,45.5,78,30.11,10.0,SE,3.5,-,N/A,,Clear,140,2013-10-08 06:15:00
1:35 AM,52.0,45.5,79,30.12,10.0,SSE,3.5,-,N/A,,Clear,150,2013-10-08 06:35:00
1:55 AM,51.6,45.5,80,30.12,10.0,SE,3.5,-,N/A,,Clear,140,2013-10-08 06:55:00
2:15 AM,50.9,45.5,82,30.12,10.0,SSE,3.5,-,N/A,,Clear,150,2013-10-08 07:15:00
2:35 AM,50.9,45.5,82,30.12,10.0,SSE,3.5,-,N/A,,Clear,150,2013-10-08 07:35:00
2:55 AM,50.9,45.5,82,30.12,10.0,SSE,4.6,-,N/A,,Clear,160,2013-10-08 07:55:00
3:15 AM,50.5,45.5,83,30.12,10.0,SSE,4.6,-,N/A,,Clear,160,2013-10-08 08:15:00
3:35 AM,50.5,45.5,83,30.12,10.0,SSE,3.5,-,N/A,,Clear,160,2013-10-08 08:35:00
3:55 AM,50.0,45.1,83,30.13,10.0,Calm,Calm,-,N/A,,Clear,0,2013-10-08 08:55:00
4:15 AM,49.6,45.0,84,30.13,10.0,SSE,4.6,-,N/A,,Clear,160,2013-10-08 09:15:00
4:35 AM,49.5,45.3,86,30.14,10.0,SSE,4.6,-,N/A,,Clear,150,2013-10-08 09:35:00
4:45 AM,50.0,44.6,82,30.14,10.0,Variable,4.6,-,N/A,,Partly Cloudy,0,2013-10-08 09:45:00
5:45 AM,48.2,44.6,87,30.15,10.0,Variable,4.6,-,N/A,,Partly Cloudy,0,2013-10-08 10:45:00
6:45 AM,48.2,44.6,87,30.17,15.0,Variable,4.6,-,N/A,,Clear,0,2013-10-08 11:45:00
7:45 AM,50.0,44.6,82,30.19,20.0,Variable,4.6,-,N/A,,Clear,0,2013-10-08 12:45:00
8:45 AM,53.6,46.4,77,30.20,20.0,Variable,3.5,-,N/A,,Clear,0,2013-10-08 13:45:00
9:45 AM,59.0,48.2,67,30.21,20.0,Variable,3.5,-,N/A,,Clear,0,2013-10-08 14:45:00
10:45 AM,64.4,48.2,56,30.21,20.0,South,4.6,-,N/A,,Clear,170,2013-10-08 15:45:00
11:45 AM,68.0,50.0,52,30.21,20.0,SSW,3.5,-,N/A,,Clear,200,2013-10-08 16:45:00
12:45 PM,71.6,50.0,46,30.19,20.0,SE,6.9,-,N/A,,Clear,130,2013-10-08 17:45:00
1:45 PM,73.4,48.2,41,30.17,20.0,SSW,3.5,-,N/A,,Clear,210,2013-10-08 18:45:00
2:45 PM,75.2,44.6,34,30.16,20.0,Calm,Calm,-,N/A,,Clear,0,2013-10-08 19:45:00
3:45 PM,75.2,42.8,31,30.15,20.0,SSE,3.5,-,N/A,,Clear,160,2013-10-08 20:45:00
4:45 PM,75.2,44.6,34,30.15,20.0,Calm,Calm,-,N/A,,Clear,0,2013-10-08 21:45:00
5:45 PM,71.6,50.0,46,30.15,20.0,Variable,3.5,-,N/A,,Clear,0,2013-10-08 22:45:00
6:45 PM,57.2,53.6,88,30.17,20.0,Calm,Calm,-,N/A,,Clear,0,2013-10-08 23:45:00
7:45 PM,64.4,50.0,59,30.17,20.0,Variable,5.8,-,N/A,,Clear,0,2013-10-09 00:45:00
8:45 PM,64.4,46.4,52,30.18,20.0,Variable,5.8,-,N/A,,Clear,0,2013-10-09 01:45:00
9:15 PM,64.0,47.5,55,30.19,10.0,SE,5.8,-,N/A,,Clear,140,2013-10-09 02:15:00
9:35 PM,63.7,47.5,56,30.19,10.0,SE,5.8,-,N/A,,Clear,140,2013-10-09 02:35:00
9:45 PM,62.6,46.4,55,30.19,20.0,Variable,4.6,-,N/A,,Clear,0,2013-10-09 02:45:00
9:55 PM,63.0,47.3,57,30.20,10.0,SSE,4.6,-,N/A,,Clear,160,2013-10-09 02:55:00
10:15 PM,62.1,47.5,59,30.20,10.0,SSE,5.8,-,N/A,,Clear,150,2013-10-09 03:15:00
10:35 PM,61.9,47.5,59,30.20,10.0,SSE,6.9,-,N/A,,Clear,150,2013-10-09 03:35:00
10:55 PM,61.3,47.5,60,30.19,10.0,SSE,5.8,-,N/A,,Clear,150,2013-10-09 03:55:00
11:15 PM,60.4,47.7,63,30.19,10.0,SSE,4.6,-,N/A,,Clear,150,2013-10-09 04:15:00
11:35 PM,59.4,47.8,66,30.19,10.0,SSE,5.8,-,N/A,,Clear,150,2013-10-09 04:35:00
11:55 PM,58.1,48.0,69,30.19,10.0,SSE,3.5,-,N/A,,Clear,150,2013-10-09 04:55:00